Yangon, Myanmar

1:47 AM +0630 on July 22, 2018 (GMT +0630)
Yangon International

Weather History for VYYY - April, 2018

Change the Weather History Date:

Monday, April 16, 2018

  Actual Average Record
Temperature  
Mean Temperature 88 °F -  
Max Temperature 102 °F - - ()
Min Temperature 73 °F - - ()
Cooling Degree Days 22    
Growing Degree Days 38 (Base 50)    
Moisture  
Dew Point 74 °F    
Average Humidity 63    
Maximum Humidity 89    
Minimum Humidity 24    
Precipitation  
Precipitation 0.00 in - - ()
Sea Level Pressure  
Sea Level Pressure 29.78 in    
Wind  
Wind Speed 4 mph ()    
Max Wind Speed 10 mph    
Max Gust Speed -    
Visibility 4.4 miles    
Events      
T = Trace of Precipitation, MM = Missing Value Source: Averaged Metar Reports

Daily Weather History Graph

Daily Weather History Graph

Search for Another Location

Airport or City:

Astronomy

Apr. 16, 2018 Rise Set
Actual Time 5:49 AM +0630 6:21 PM +0630
Civil Twilight 5:27 AM +0630 6:43 PM +0630
Nautical Twilight 5:01 AM +0630 7:09 PM +0630
Astronomical Twilight 4:35 AM +0630 7:35 PM +0630
Moon 6:02 AM +0630 (4/16) 6:42 PM +0630 (4/16)
Length of Visible Light 13h 15m
Length of Day
12h 31m
New Moon, 0% of the Moon is Illuminated
Apr 16
New Moon
Apr 23
First Quarter
Apr 30
Full
May 8
Last Quarter
May 15
New

Hourly Weather History & Observations

Time (+0630) Temp. Heat Index Dew Point Humidity Pressure Visibility Wind Dir Wind Speed Gust Speed Precip Events Conditions
12:00 AM 82.4 °F 88.2 °F 73.4 °F 74% 29.77 in 4.3 mi WSW 4.6 mph - N/A   Unknown
12:30 AM 82.4 °F 88.2 °F 73.4 °F 74% 29.77 in 4.3 mi SW 4.6 mph - N/A   Unknown
1:00 AM 82.4 °F 88.2 °F 73.4 °F 74% 29.77 in 4.3 mi SSW 4.6 mph - N/A   Unknown
3:30 AM 80.6 °F 86.2 °F 75.2 °F 84% 29.74 in 4.3 mi SSW 4.6 mph - N/A   Unknown
4:00 AM 80.6 °F 86.2 °F 75.2 °F 84% 29.74 in 4.3 mi WSW 4.6 mph - N/A   Unknown
5:30 AM 78.8 °F - 75.2 °F 89% 29.77 in 3.7 mi SW 3.5 mph - N/A   Mostly Cloudy
6:00 AM 78.8 °F - 75.2 °F 89% 29.80 in 3.7 mi WNW 3.5 mph - N/A   Mostly Cloudy
6:30 AM 80 °F - 76 °F 83% 29.81 in 4 mi South 3.5 mph - -   Partly Cloudy
6:30 AM 78.8 °F - 75.2 °F 89% 29.80 in 3.7 mi SW 3.5 mph - N/A   Mostly Cloudy
7:00 AM 78.8 °F - 75.2 °F 89% 29.80 in 3.7 mi West 2.3 mph - N/A   Mostly Cloudy
8:00 AM 80.6 °F 86.2 °F 75.2 °F 84% 29.83 in 3.7 mi SSW 4.6 mph - N/A   Mostly Cloudy
9:00 AM 86.0 °F 99.3 °F 78.8 °F 79% 29.83 in 4.3 mi South 3.5 mph - N/A   Scattered Clouds
9:30 AM 87.8 °F 97.6 °F 75.2 °F 66% 29.83 in 5.0 mi SSW 4.6 mph - N/A   Scattered Clouds
10:00 AM 89.6 °F 99.8 °F 75.2 °F 62% 29.83 in 5.0 mi SSW 5.8 mph - N/A   Scattered Clouds
10:30 AM 91.4 °F 102.5 °F 75.2 °F 59% 29.83 in 5.0 mi West 5.8 mph - N/A   Scattered Clouds
11:00 AM 93.2 °F 105.0 °F 75.2 °F 56% 29.83 in 5.0 mi SW 6.9 mph - N/A   Scattered Clouds
11:30 AM 95.0 °F 107.4 °F 75.2 °F 53% 29.83 in 5.0 mi WSW 6.9 mph - N/A   Scattered Clouds
12:30 PM 97 °F - 76 °F 41% 29.81 in 4 mi SW 1.2 mph - -   Scattered Clouds
12:30 PM 96.8 °F 103.1 °F 69.8 °F 41% 29.80 in 5.0 mi WSW 5.8 mph - N/A   Partly Cloudy
1:00 PM 98.6 °F 107.7 °F 71.6 °F 42% 29.80 in 5.0 mi WSW 3.5 mph - N/A   Partly Cloudy
1:30 PM 98.6 °F 107.7 °F 71.6 °F 42% 29.77 in 5.0 mi North 3.5 mph - N/A   Partly Cloudy
2:00 PM 98.6 °F 107.7 °F 71.6 °F 42% 29.74 in 5.0 mi NNW 3.5 mph - N/A   Unknown
2:30 PM 98.6 °F 107.7 °F 71.6 °F 42% 29.74 in 5.0 mi NNW 4.6 mph - N/A   Unknown
3:00 PM 100.4 °F 113.6 °F 75.2 °F 44% 29.71 in 5.0 mi SSW 5.8 mph - N/A   Unknown
3:30 PM 102 °F - 68 °F 24% 29.74 in 4 mi SW 1.2 mph - -   Scattered Clouds
3:30 PM 100.4 °F 109.3 °F 71.6 °F 39% 29.71 in 5.0 mi SW 3.5 mph - N/A   Unknown
5:00 PM 98.6 °F 111.7 °F 75.2 °F 47% 29.68 in 5.0 mi South 5.8 mph - N/A   Unknown
6:30 PM 92 °F - 77 °F 53% 29.73 in 4 mi SW 1.2 mph - -   Scattered Clouds
8:33 PM 89.6 °F 99.8 °F 75.2 °F 62% 29.77 in 4.3 mi SSW 10.4 mph - N/A   Unknown
9:30 PM 86.0 °F 93.4 °F 73.4 °F 66% 29.80 in 4.3 mi SSW 9.2 mph - N/A   Partly Cloudy
10:00 PM 86.0 °F 93.4 °F 73.4 °F 66% 29.80 in 4.3 mi WSW 9.2 mph - N/A   Unknown
10:30 PM 86.0 °F 93.4 °F 73.4 °F 66% 29.83 in 4.3 mi SW 4.6 mph - N/A   Unknown
11:30 PM 84.2 °F 90.9 °F 73.4 °F 70% 29.83 in 4.3 mi WSW 2.3 mph - N/A   Unknown